Change the Weather History Date:

Friday, May 24, 2013

  Actual Average Record
Temperature  
Mean Temperature 70 °F 74 °F  
Max Temperature 82 °F 85 °F 97 °F (1996)
Min Temperature 57 °F 62 °F 50 °F (2002)
Cooling Degree Days 6    
Growing Degree Days 21 (Base 50)    
Moisture  
Dew Point 53 °F    
Average Humidity 53    
Maximum Humidity 78    
Minimum Humidity 28    
Precipitation  
Precipitation 0.00 in 0.13 in 1.58 in (1957)
Month to date precipitation 2.49 3.08  
Year to date precipitation 21.93 22.50  
Sea Level Pressure  
Sea Level Pressure 30.17 in    
Wind  
Wind Speed 9 mph (NNE)    
Max Wind Speed 18 mph    
Max Gust Speed 23 mph    
Visibility 10 miles    
Events      
T = Trace of Precipitation, MM = Missing Value Source: NWS Daily Summary

Daily Weather History Graph

Daily Weather History Graph

Search for Another Location

Airport or City:

Trip Planner

Search our weather history database for the weather conditions in past years. The results will help you decide how hot, cold, wet, or windy it might be!

Date:

Astronomy

May. 24, 2013 Rise Set
Actual Time 5:45 AM CDT 7:49 PM CDT
Civil Twilight 5:17 AM CDT 8:17 PM CDT
Nautical Twilight 4:43 AM CDT 8:51 PM CDT
Astronomical Twilight 4:06 AM CDT 9:28 PM CDT
Moon 7:32 PM CDT (5/24) 5:14 AM CDT (5/24)
Length of Visible Light 15h 00m
Length of Day
14h 04m
Full, 100% of the Moon is Illuminated
May 24
Full
May 24
Full
May 31
Last Quarter
Jun 8
New
Jun 16
First Quarter

Hourly Weather History & Observations

Time (CDT) Temp. Heat Index Dew Point Humidity Pressure Visibility Wind Dir Wind Speed Gust Speed Precip Events Conditions
12:53 AM 69.1 °F - 61.0 °F 75% 30.05 in 10.0 mi North 5.8 mph - N/A   Clear
1:53 AM 68.0 °F - 61.0 °F 78% 30.06 in 10.0 mi NNE 5.8 mph - N/A   Clear
2:53 AM 68.0 °F - 60.1 °F 76% 30.07 in 10.0 mi NNE 8.1 mph - N/A   Clear
3:53 AM 66.0 °F - 57.9 °F 75% 30.09 in 10.0 mi North 8.1 mph - N/A   Partly Cloudy
4:53 AM 64.9 °F - 57.0 °F 75% 30.11 in 10.0 mi North 6.9 mph - N/A   Clear
5:53 AM 64.0 °F - 55.9 °F 75% 30.12 in 10.0 mi North 4.6 mph - N/A   Clear
6:53 AM 64.9 °F - 55.9 °F 73% 30.15 in 10.0 mi North 6.9 mph - N/A   Clear
7:53 AM 68.0 °F - 57.0 °F 68% 30.17 in 10.0 mi North 9.2 mph - N/A   Clear
8:53 AM 71.1 °F - 57.0 °F 61% 30.19 in 10.0 mi NNE 13.8 mph - N/A   Clear
9:53 AM 73.9 °F - 57.9 °F 57% 30.20 in 10.0 mi North 13.8 mph 21.9 mph N/A   Clear
10:53 AM 75.9 °F - 57.0 °F 52% 30.21 in 10.0 mi North 10.4 mph - N/A   Clear
11:53 AM 78.1 °F - 57.9 °F 50% 30.21 in 10.0 mi North 13.8 mph 21.9 mph N/A   Clear
12:53 PM 78.1 °F - 55.0 °F 45% 30.21 in 10.0 mi North 11.5 mph 18.4 mph N/A   Clear
1:53 PM 80.1 °F 79.9 °F 53.1 °F 39% 30.21 in 10.0 mi NNW 11.5 mph - N/A   Clear
2:53 PM 80.1 °F 79.9 °F 53.1 °F 39% 30.19 in 10.0 mi North 12.7 mph - N/A   Clear
3:53 PM 81.0 °F - 50.0 °F 34% 30.19 in 10.0 mi North 12.7 mph - N/A   Clear
4:53 PM 80.1 °F - 45.0 °F 29% 30.19 in 10.0 mi NE 10.4 mph - N/A   Clear
5:26 PM 78.8 °F - 44.6 °F 30% 30.19 in 10.0 mi NNE 15.0 mph - N/A   Partly Cloudy
5:53 PM 79.0 °F - 45.0 °F 30% 30.18 in 10.0 mi NNE 12.7 mph - N/A   Clear
6:53 PM 75.9 °F - 46.9 °F 36% 30.19 in 10.0 mi NE 11.5 mph - N/A   Clear
7:53 PM 72.0 °F - 46.9 °F 41% 30.19 in 10.0 mi NNE 8.1 mph - N/A   Clear
8:53 PM 66.0 °F - 50.0 °F 56% 30.21 in 10.0 mi North 4.6 mph - N/A   Clear
9:53 PM 64.9 °F - 50.0 °F 58% 30.23 in 10.0 mi North 4.6 mph - N/A   Clear
10:53 PM 61.0 °F - 51.1 °F 70% 30.24 in 10.0 mi NE 3.5 mph - N/A   Clear
11:53 PM 59.0 °F - 51.1 °F 75% 30.23 in 10.0 mi NNE 3.5 mph - N/A   Clear